星链-4669 (STARLINK-4669 )

导读 | 星芒AI

STARLINK-4669 是 SpaceX Starlink 项目中的一颗低轨通信卫星,属于该星座的众多卫星之一,旨在为全球用户提供高速互联网服务。该卫星采用可重复使用设计,配备先进相控阵天线和激光通信系统,以提升数据传输效率和网络稳定性。它运行在约 550 公里的近地轨道,支持全球范围内的宽带接入,尤其服务于偏远和网络基础设施薄弱的地区。STARLINK-4669 的部署进一步增强了 Starlink 网络的覆盖能力与可靠性。

基本信息
目录编号:
53748
目录名称:
STARLINK-4669
国际标识:
2022-107BA
轨道中心:
EARTH
卫星名称:
星链-4669
卫星全名:
星链-4669 (STARLINK-4669 )
卫星状态:
已陨落 最后检测时间 2025-02-07
发射日期:
2022-09-05 UTC
国别 :
美国 (US)
星等 :
--
轨道信息
数据来源 国际轨道数据
星历时间: 2025-02-07T11:19:59+0800
轨道信息已过期270天
半长轴: 6542.378km
偏心率: 0.000479
轨道倾角: 53.199°
近地点辐角 305.445°
升交点赤经 208.430°
平近点角 192.935°
近地点: 161.109km
远地点: 167.377km
周期: 87.773分钟
每日圈数: 16.405874
详细信息
固有亮度:
5
最大亮度:
2.5
卫星平台:
Starlink v1.5
覆盖范围:
全球
运营商:
太空探索技术公司
运营商所在国:
美国
制造商(研发单位):
太空探索技术公司
制造商所在国:
美国
使用方式:
暂无
卫星简介
星链(Starlink)计划是由太空探索技术公司(SpaceX)提出的一个巨型低轨卫星互联网星座项目,计划在2019年至2024年间在太空搭建由约1.2万颗卫星组成的“星链”网络,其中1584颗将部署在地球上空550千米处的近地轨道,并从2020年开始工作。该卫星仍在工作。